Regional Weather Roundup
Issued by NWS

Home | Current Version | Previous Version | Graphics & Text | Print | Product List | Glossary On
Versions: 1 2 3 4 5 6 7 8 9 10 11 12 13 14 15 16 17 18 19 20 21 22 23 24 25 26 27 28 29 30 31 32 33 34 35 36 37 38 39 40 41 42 43 44 45 46 47 48 49 50
000
ASUS43 KLSX 280110
RWRMO

WEATHER SUMMARY FOR MISSOURI
NATIONAL WEATHER SERVICE SPRINGFIELD MO
800 PM CDT SAT MAY 27 2017

NOTE: "FAIR" INDICATES FEW OR NO CLOUDS BELOW 12,000 FEET WITH NO
       SIGNIFICANT WEATHER AND/OR OBSTRUCTIONS TO VISIBILITY.
       CURRENT SKY AND/OR WEATHER CONDITIONS ARE NOT AVAILABLE FOR
       CHILLICOTHE AND FARMINGTON.

MOZ001>031-035>038-043-044-053-054-280200-
...NORTHERN AND WESTERN MISSOURI...

CITY           SKY/WX    TMP DP  RH WIND       PRES   REMARKS
KANSAS CTY INT PTCLDY    71  63  75 N5        29.81R
KANSAS C DTWN  CLEAR     72  62  71 E3        29.81R
LEE`S SUMMIT   CLOUDY    70  62  76 CALM      29.83R
ST JOSEPH      CLEAR     72  64  76 NW13      29.81F
CHILLICOTHE      N/A     74  63  68 N7        29.79S
KIRKSVILLE     MOCLDY    73  64  73 NE3       29.79F

$$
MOZ066>068-077>081-088>096-101>105-280200-
...SOUTHWEST MISSOURI...

CITY           SKY/WX    TMP DP  RH WIND       PRES   REMARKS
SPRINGFIELD    CLOUDY    65  62  90 VRB3      29.84R THUNDER
JOPLIN         CLOUDY    71  70  96 SE8       29.77R
BRANSON        CLOUDY    70  63  78 N15G31    29.84R THUNDER

$$
MOZ032>034-039>042-045>050-055>058-069>072-280200-
...CENTRAL MISSOURI...

CITY           SKY/WX    TMP DP  RH WIND       PRES   REMARKS
COLUMBIA       CLOUDY    63  62  97 NE8       29.79F
JEFFERSON CITY CLOUDY    67  60  78 VRB3G17   29.81R
ROLLA          CLOUDY    62  60  93 SE13      29.81R THUNDER
SEDALIA        CLOUDY    66  63  90 E6        29.80F
WHITEMAN AFB   CLOUDY    68  67  99 NE5       29.80R
WARRENSBURG    CLOUDY    68  59  73 N3        29.81R

$$
MOZ051-052-059>065-280200-
...EAST CENTRAL MISSOURI...

CITY           SKY/WX    TMP DP  RH WIND       PRES   REMARKS
ST LOUIS INTL  CLOUDY    69  60  73 SW8       29.74R
SPIRIT OF STL  CLOUDY    67  61  81 S8G17     29.74R
ST CHARLES     CLOUDY    68  61  78 SW13      29.73R

$$
MOZ072>076-082>087-097>100-106>115-280200-
...SOUTH CENTRAL AND SOUTHEAST MISSOURI...

CITY           SKY/WX    TMP DP  RH WIND       PRES   REMARKS
CAPE GIRARDEAU CLOUDY    68  60  75 CALM      29.84F
POPLAR BLUFF   CLOUDY    66  63  90 E9        29.86R
WEST PLAINS    TSTM      65  61  87 NW38G48   30.04R FOG

$$




USA.gov is the U.S. government's official web portal to all federal, state and local government web resources and services.